Weather History for Kodiak, AK

Change the Weather History Date:

Saturday, November 3, 2012

  Actual Average Record
Temperature  
Mean Temperature 41 °F 36 °F  
Max Temperature 44 °F 42 °F 52 °F (1984)
Min Temperature 38 °F 31 °F 10 °F (1985)
Degree Days  
Heating Degree Days 24 29  
Month to date heating degree days 81 87  
Since 1 July heating degree days 2095 1945  
Cooling Degree Days 0    
Month to date cooling degree days 0  
Year to date cooling degree days 0  
Moisture  
Dew Point 36 °F    
Average Humidity 0    
Maximum Humidity 0    
Minimum Humidity 0    
Precipitation  
Precipitation 0.22 in 0.22 in 2.69 in (2002)
Month to date precipitation 1.41 0.69  
Year to date precipitation 49.17 63.09  
Snow  
Snow 0.00 in 0.10 in 1.30 in (2011)
Month to date snowfall 0.3 0.3  
Since 1 July snowfall 0.7 1.4  
Since 1 September snowfall 0.7 1.4  
Snow Depth 0.00 in    
Sea Level Pressure  
Sea Level Pressure 29.15 in    
Wind  
Wind Speed 14 mph (NNW)    
Max Wind Speed 28 mph    
Max Gust Speed 41 mph    
Visibility 8 miles    
Events Rain    
T = Trace of Precipitation, MM = Missing Value Source: NWS Daily Summary

Daily Weather History Graph

Daily Weather History Graph

Search for Another Location

Airport:

Trip Planner

Search our weather history database for the weather conditions in past years. The results will help you decide how hot, cold, wet, or windy it might be!

Date:

Astronomy

Nov. 03, 2012 Rise Set
Actual Time 9:29 AM AKDT 6:16 PM AKDT
Civil Twilight 8:47 AM AKDT 6:59 PM AKDT
Nautical Twilight 8:00 AM AKDT 7:45 PM AKDT
Astronomical Twilight 7:15 AM AKDT 8:30 PM AKDT
Moon 9:46 PM AKDT (11/3) 2:03 PM AKDT (11/3)
Length of Visible Light 10h 12m
Length of Day
8h 47m
Waning Gibbous, 79% of the Moon is Illuminated
Nov 3
Waning Gibbous
Nov 6
Last Quarter
Nov 13
New
Nov 20
First Quarter
Nov 28
Full

Hourly Weather History & Observations

Time (AKDT) Temp. Windchill Dew Point Humidity Pressure Visibility Wind Dir Wind Speed Gust Speed Precip Events Conditions
12:23 AM 42.8 °F 34.0 °F 35.6 °F 76% 29.03 in 10.0 mi NNE 20.7 mph 29.9 mph N/A   Overcast
12:53 AM 43.0 °F 35.1 °F 37.0 °F 80% 29.03 in 10.0 mi North 17.3 mph 32.2 mph 0.00 in   Mostly Cloudy
1:15 AM 42.8 °F 33.8 °F 37.4 °F 81% 29.03 in 10.0 mi North 21.9 mph 31.1 mph N/A   Overcast
1:53 AM 43.0 °F 34.8 °F 37.0 °F 80% 29.04 in 10.0 mi North 18.4 mph 31.1 mph N/A   Overcast
2:29 AM 42.8 °F 34.5 °F 35.6 °F 76% 29.05 in 10.0 mi NNE 18.4 mph 28.8 mph N/A   Overcast
2:53 AM 44.1 °F 35.9 °F 37.0 °F 76% 29.05 in 10.0 mi NNE 19.6 mph 28.8 mph N/A   Overcast
3:00 AM 44.6 °F 36.4 °F 37.4 °F 76% 29.05 in 10.0 mi NNE 20.7 mph 31.1 mph N/A   Mostly Cloudy
3:53 AM 43.0 °F 33.3 °F 37.0 °F 80% 29.06 in 10.0 mi NNE 25.3 mph 38.0 mph N/A   Mostly Cloudy
4:53 AM 42.1 °F 33.3 °F 36.0 °F 79% 29.07 in 10.0 mi North 19.6 mph 26.5 mph N/A   Mostly Cloudy
5:28 AM 42.8 °F 33.5 °F 37.4 °F 81% 29.07 in 3.0 mi NNE 23.0 mph 29.9 mph 0.02 in Rain Heavy Rain
5:36 AM 41.0 °F 31.6 °F 37.4 °F 87% 29.08 in 2.0 mi NNE 20.7 mph 34.5 mph 0.06 in Rain Rain
5:50 AM 39.2 °F 32.0 °F 35.6 °F 87% 29.08 in 7.0 mi North 11.5 mph 25.3 mph 0.10 in Rain Light Rain
5:53 AM 39.0 °F 31.0 °F 36.0 °F 89% 29.09 in 10.0 mi North 13.8 mph 23.0 mph 0.10 in Rain Light Rain
6:14 AM 39.2 °F 31.6 °F 35.6 °F 87% 29.08 in 10.0 mi North 12.7 mph 32.2 mph 0.00 in   Overcast
6:53 AM 41.0 °F 32.8 °F 37.0 °F 86% 29.09 in 10.0 mi North 16.1 mph 25.3 mph 0.00 in Rain Light Rain
7:19 AM 39.2 °F 30.5 °F 35.6 °F 87% 29.10 in 5.0 mi North 16.1 mph 32.2 mph 0.01 in Rain Light Rain
7:53 AM 41.0 °F 33.1 °F 37.0 °F 86% 29.11 in 10.0 mi NNW 15.0 mph 21.9 mph 0.02 in   Overcast
8:53 AM 42.1 °F 35.2 °F 37.9 °F 85% 29.13 in 10.0 mi North 12.7 mph - 0.00 in   Overcast
9:53 AM 42.1 °F 33.9 °F 37.0 °F 82% 29.14 in 10.0 mi North 17.3 mph 26.5 mph N/A   Overcast
10:53 AM 42.1 °F 34.9 °F 37.9 °F 85% 29.16 in 8.0 mi North 13.8 mph 20.7 mph N/A   Overcast
11:53 AM 41.0 °F 34.3 °F 37.9 °F 89% 29.18 in 5.0 mi North 11.5 mph 20.7 mph 0.01 in Rain Light Rain
12:53 PM 42.1 °F 35.2 °F 37.0 °F 82% 29.19 in 10.0 mi North 12.7 mph 19.6 mph 0.01 in   Mostly Cloudy
1:53 PM 43.0 °F 38.2 °F 37.0 °F 80% 29.21 in 7.0 mi NNW 8.1 mph 18.4 mph 0.00 in   Overcast
2:53 PM 42.1 °F 40.2 °F 37.0 °F 82% 29.21 in 5.0 mi Variable 3.5 mph - 0.00 in Rain Light Rain
3:53 PM 39.0 °F 30.6 °F 35.1 °F 86% 29.22 in 6.0 mi WNW 15.0 mph 20.7 mph 0.05 in   Overcast
4:53 PM 37.9 °F 29.2 °F 36.0 °F 93% 29.23 in 4.0 mi WNW 15.0 mph - 0.01 in Rain Light Rain
5:53 PM 37.9 °F 29.2 °F 35.1 °F 89% 29.24 in 4.0 mi WNW 15.0 mph - 0.02 in Rain Light Rain
6:53 PM 37.9 °F 30.5 °F 35.1 °F 89% 29.25 in 10.0 mi NW 11.5 mph - 0.00 in   Overcast
7:53 PM 37.9 °F 29.2 °F 34.0 °F 86% 29.26 in 10.0 mi WNW 15.0 mph - N/A   Overcast
8:53 PM 37.9 °F 29.2 °F 34.0 °F 86% 29.27 in 10.0 mi WNW 15.0 mph - 0.00 in   Overcast
9:53 PM 37.9 °F 29.6 °F 34.0 °F 86% 29.29 in 10.0 mi WNW 13.8 mph 21.9 mph 0.00 in   Overcast
10:53 PM 37.9 °F 29.6 °F 33.1 °F 83% 29.30 in 10.0 mi WNW 13.8 mph - 0.00 in   Overcast
11:53 PM 37.9 °F 30.5 °F 33.1 °F 83% 29.30 in 10.0 mi NW 11.5 mph - N/A   Mostly Cloudy